Hilton Head Island, SC

12:21 PM EDT on September 29, 2016 (GMT -0400)
Hilton Head

Weather History for KHXD - March, 2014

Change the Weather History Date:

Tuesday, March 18, 2014

  Actual Average Record
Temperature  
Mean Temperature 46 °F -  
Max Temperature 51 °F 68 °F 90 °F (1963)
Min Temperature 41 °F 45 °F 30 °F (1962)
Degree Days  
Heating Degree Days 19    
Moisture  
Dew Point 42 °F    
Average Humidity 91    
Maximum Humidity 100    
Minimum Humidity 76    
Precipitation  
Precipitation 0.27 in - - ()
Sea Level Pressure  
Sea Level Pressure 29.95 in    
Wind  
Wind Speed 13 mph (North)    
Max Wind Speed 16 mph    
Max Gust Speed 28 mph    
Visibility 8 miles    
Events Rain , Thunderstorm    
Averages and records for this station are not official NWS values.
T = Trace of Precipitation, MM = Missing Value Source: NWS Daily Summary

Daily Weather History Graph

Daily Weather History Graph

Search for Another Location

Airport or City:

Trip Planner

Search our weather history database for the weather conditions in past years. The results will help you decide how hot, cold, wet, or windy it might be!

Date:

Astronomy

Mar. 18, 2014 Rise Set
Actual Time 7:29 AM EDT 7:32 PM EDT
Civil Twilight 7:04 AM EDT 7:57 PM EDT
Nautical Twilight 6:36 AM EDT 8:25 PM EDT
Astronomical Twilight 6:07 AM EDT 8:54 PM EDT
Moon 9:39 PM EDT (3/18) 8:25 AM EDT (3/18)
Length of Visible Light 12h 52m
Length of Day
12h 03m
Waning Gibbous, 96% of the Moon is Illuminated
Mar 18
Waning Gibbous
Mar 23
Last Quarter
Mar 30
New
Apr 7
First Quarter
Apr 15
Full

Hourly Weather History & Observations

Time (EDT) Temp. Windchill Dew Point Humidity Pressure Visibility Wind Dir Wind Speed Gust Speed Precip Events Conditions
12:15 AM 46.4 °F 39.8 °F 44.6 °F 93% 29.83 in 5.0 mi North 16.1 mph 21.9 mph 0.00 in Rain Light Rain
12:35 AM 44.6 °F 38.1 °F 44.6 °F 100% 29.83 in 4.0 mi North 13.8 mph - 0.01 in Rain Light Rain
12:55 AM 44.6 °F 38.4 °F 44.6 °F 100% 29.82 in 3.0 mi North 12.7 mph 19.6 mph 0.06 in Rain Heavy Rain
1:15 AM 44.6 °F 37.8 °F 44.6 °F 100% 29.81 in 3.0 mi North 15.0 mph 20.7 mph 0.03 in Rain Light Rain
1:35 AM 44.6 °F 38.4 °F 44.6 °F 100% 29.81 in 5.0 mi North 12.7 mph - 0.05 in Rain Light Rain
1:55 AM 44.6 °F 39.2 °F 42.8 °F 93% 29.79 in 3.0 mi North 10.4 mph 21.9 mph 0.09 in Rain Rain
2:15 AM 44.6 °F 37.8 °F 42.8 °F 93% 29.81 in 3.0 mi North 15.0 mph - 0.03 in Rain Rain
2:35 AM 42.8 °F 35.4 °F 42.8 °F 100% 29.83 in 4.0 mi North 15.0 mph 18.4 mph 0.07 in Rain Rain
2:55 AM 42.8 °F 35.4 °F 42.8 °F 100% 29.82 in 4.0 mi North 15.0 mph 20.7 mph 0.12 in Rain , Thunderstorm Light Rain
3:15 AM 42.8 °F 36.2 °F 42.8 °F 100% 29.81 in 10.0 mi North 12.7 mph - 0.00 in   Overcast
3:35 AM 42.8 °F 35.8 °F 42.8 °F 100% 29.79 in 8.0 mi North 13.8 mph 21.9 mph 0.00 in   Light Drizzle
3:55 AM 42.8 °F 37.5 °F 42.8 °F 100% 29.82 in 10.0 mi North 9.2 mph - 0.00 in   Overcast
4:15 AM 42.8 °F 35.8 °F 42.8 °F 100% 29.80 in 8.0 mi North 13.8 mph - 0.00 in Rain Light Rain
4:35 AM 42.8 °F 35.4 °F 41.0 °F 93% 29.80 in 6.0 mi North 15.0 mph 26.5 mph 0.00 in   Light Drizzle
4:55 AM 42.8 °F 36.2 °F 41.0 °F 93% 29.81 in 5.0 mi North 12.7 mph 20.7 mph 0.00 in   Light Drizzle
5:15 AM 42.8 °F 35.1 °F 41.0 °F 93% 29.78 in 8.0 mi North 16.1 mph 20.7 mph 0.00 in   Light Drizzle
5:35 AM 42.8 °F 35.4 °F 41.0 °F 93% 29.79 in 10.0 mi North 15.0 mph - 0.00 in   Overcast
7:10 AM 41.0 °F 35.2 °F 39.2 °F 93% 29.78 in 6.0 mi North 9.2 mph - N/A   Overcast
7:50 AM 41.0 °F 35.2 °F 39.2 °F 93% 29.78 in 7.0 mi North 9.2 mph - N/A   Overcast
8:50 AM 41.0 °F 35.2 °F 39.2 °F 93% 29.93 in 4.0 mi North 9.2 mph - N/A   Overcast
9:50 AM 41.0 °F 34.7 °F 39.2 °F 93% 29.95 in 8.0 mi North 10.4 mph - N/A   Overcast
10:50 AM 41.0 °F 34.7 °F 41.0 °F 100% 29.99 in 7.0 mi North 10.4 mph 17.3 mph N/A   Overcast
11:50 AM 42.8 °F 37.5 °F 39.2 °F 87% 30.01 in 10.0 mi NNW 9.2 mph 16.1 mph N/A   Overcast
12:50 PM 44.6 °F 38.1 °F 41.0 °F 87% 30.01 in 10.0 mi North 13.8 mph 27.6 mph N/A   Overcast
1:50 PM 46.4 °F 40.7 °F 41.0 °F 81% 30.00 in 10.0 mi North 12.7 mph 21.9 mph N/A   Overcast
2:50 PM 48.2 °F - 42.8 °F 82% 29.98 in 10.0 mi NNW 11.5 mph 19.6 mph N/A   Overcast
3:50 PM 51.8 °F - 44.6 °F 76% 29.98 in 9.0 mi North 13.8 mph 20.7 mph N/A   Overcast
4:50 PM 51.8 °F - 44.6 °F 76% 30.00 in 9.0 mi NNW 11.5 mph 21.9 mph N/A   Overcast
5:50 PM 50.0 °F - 42.8 °F 76% 30.01 in 9.0 mi North 11.5 mph - N/A   Overcast
6:50 PM 48.2 °F - 42.8 °F 82% 30.03 in 7.0 mi NNW 9.2 mph 17.3 mph N/A   Overcast
7:50 PM 46.4 °F 40.4 °F 42.8 °F 87% 30.07 in 8.0 mi North 13.8 mph - N/A   Overcast
8:15 PM 46.4 °F 42.4 °F 42.8 °F 87% 30.08 in 9.0 mi NNW 8.1 mph 17.3 mph 0.00 in   Overcast
8:35 PM 46.4 °F 41.9 °F 42.8 °F 87% 30.09 in 9.0 mi North 9.2 mph - 0.00 in   Overcast
8:50 PM 46.4 °F 41.5 °F 42.8 °F 87% 30.09 in 10.0 mi North 10.4 mph - N/A   Overcast
8:55 PM 46.4 °F 41.9 °F 42.8 °F 87% 30.11 in 10.0 mi North 9.2 mph - 0.00 in   Overcast
9:15 PM 46.4 °F 41.9 °F 42.8 °F 87% 30.11 in 10.0 mi North 9.2 mph - 0.00 in   Overcast
9:35 PM 46.4 °F 41.5 °F 42.8 °F 87% 30.12 in 10.0 mi North 10.4 mph - 0.00 in   Overcast
9:55 PM 46.4 °F 41.9 °F 42.8 °F 87% 30.12 in 10.0 mi North 9.2 mph - 0.00 in   Overcast
10:15 PM 46.4 °F 41.1 °F 42.8 °F 87% 30.12 in 10.0 mi North 11.5 mph - 0.00 in   Overcast
10:35 PM 46.4 °F 42.9 °F 42.8 °F 87% 30.13 in 10.0 mi North 6.9 mph - 0.00 in   Overcast
10:55 PM 46.4 °F 42.9 °F 42.8 °F 87% 30.14 in 10.0 mi North 6.9 mph - 0.00 in   Overcast
11:15 PM 46.4 °F 42.4 °F 42.8 °F 87% 30.15 in 10.0 mi North 8.1 mph - 0.00 in   Overcast
11:35 PM 46.4 °F 43.5 °F 42.8 °F 87% 30.15 in 10.0 mi NNE 5.8 mph - 0.00 in   Overcast
11:55 PM 46.4 °F 44.3 °F 42.8 °F 87% 30.15 in 10.0 mi NNE 4.6 mph - 0.00 in   Overcast